CW2274 Weather Reports


time (UTC)temp
F
wind
direction
speed
knots
gust
knots
rain 1hr
in
rain 24hr
in
rain mn
in
humidity
%
barometer
mb
20260901225017 93 296 0.9 8.7 0.00 0.00 0.00 40 1015.6
20260901224531 94 290 3.5 8.7 0.00 0.00 0.00 41 1015.6
20260901224030 93 273 3.5 7.0 0.00 0.00 0.00 40 1015.7
20260901223526 92 352 1.7 5.2 0.00 0.00 0.00 42 1015.6
20260901223021 92 5 1.7 6.1 0.00 0.00 0.00 42 1015.8
20260901222517 92 11 3.5 6.1 0.00 0.00 0.00 42 1015.8
20260901222032 92 23 3.5 6.1 0.00 0.00 0.00 42 1015.8
20260901221527 92 1 3.5 6.1 0.00 0.00 0.00 42 1015.8
20260901221022 92 4 0.9 7.0 0.00 0.00 0.00 44 1015.9
20260901220521 91 43 3.5 7.8 0.00 0.00 0.00 43 1015.9
20260901220028 92 9 3.5 7.8 0.00 0.00 0.00 42 1016.1
20260901215528 92 9 2.6 7.0 0.00 0.00 0.00 43 1016.2
20260901215023 91 68 3.5 7.0 0.00 0.00 0.00 43 1016.3
20260901214516 91 40 3.5 7.0 0.00 0.00 0.00 44 1016.4
20260901214031 92 19 2.6 6.1 0.00 0.00 0.00 43 1016.4
20260901213525 92 354 2.6 7.0 0.00 0.00 0.00 42 1016.5
20260901213019 93 2 1.7 6.1 0.00 0.00 0.00 41 1016.6
20260901212518 92 336 2.6 4.3 0.00 0.00 0.00 43 1016.7
20260901212031 91 335 1.7 5.2 0.00 0.00 0.00 42 1016.7
20260901211526 92 335 2.6 6.1 0.00 0.00 0.00 42 1016.9
20260901211021 92 323 1.7 5.2 0.00 0.00 0.00 41 1016.8
20260901210516 93 318 1.7 7.8 0.00 0.00 0.00 41 1016.9
20260901210042 92 6 1.7 7.8 0.00 0.00 0.00 42 1016.9
20260901205523 93 277 2.6 6.1 0.00 0.07 0.00 40 1017.1
20260901205022 92 277 2.6 6.1 0.00 0.07 0.00 42 1017.1
20260901204518 90 225 2.6 5.2 0.00 0.07 0.00 43 1017.2
20260901203515 92 310 0.9 6.1 0.00 0.07 0.00 41 1017.3
20260901203030 91 352 0.9 2.6 0.00 0.07 0.00 42 1017.4
20260901202526 90 352 0.9 3.5 0.00 0.07 0.00 42 1017.5
20260901202022 90 352 1.7 3.5 0.00 0.07 0.00 42 1017.7
20260901201520 93 300 1.7 5.2 0.00 0.07 0.00 40 1017.7
20260901201015 93 343 0.9 5.2 0.00 0.07 0.00 41 1017.7
20260901200529 92 314 1.7 5.2 0.00 0.07 0.00 40 1017.7
20260901200036 90 337 1.7 3.5 0.00 0.07 0.00 43 1017.8
20260901195516 90 292 0.9 5.2 0.00 0.15 0.00 43 1018.0
20260901195030 92 291 0.9 6.1 0.00 0.15 0.00 40 1018.0
20260901194525 92 298 2.6 6.1 0.00 0.15 0.00 41 1018.0
20260901194019 91 354 0.9 3.5 0.00 0.15 0.00 42 1018.1
20260901193518 89 354 0.9 3.5 0.00 0.15 0.00 42 1018.2
20260901193012 90 354 1.7 4.3 0.00 0.15 0.00 44 1018.2
20260901192526 89 24 1.7 4.3 0.00 0.15 0.00 45 1018.3
20260901192021 90 102 0.9 2.6 0.00 0.15 0.00 45 1018.3
20260901191516 89 103 0.9 3.5 0.00 0.15 0.00 46 1018.4
20260901191031 88 103 1.7 3.5 0.00 0.15 0.00 45 1018.4
20260901190527 88 104 1.7 7.0 0.00 0.15 0.00 44 1018.4
20260901190039 88 107 3.5 7.8 0.00 0.15 0.00 44 1018.5
20260901185519 88 38 2.6 5.2 0.00 0.40 0.00 46 1018.7
20260901185014 88 29 1.7 3.5 0.00 0.40 0.00 45 1018.7
20260901184530 87 267 1.7 3.5 0.00 0.40 0.00 45 1018.7
20260901184026 87 269 1.7 3.5 0.00 0.40 0.00 46 1018.8
20260901183522 88 270 1.7 7.0 0.00 0.40 0.00 45 1018.8
20260901183018 91 270 1.7 7.0 0.00 0.40 0.00 47 1018.9
20260901182516 90 275 2.6 7.0 0.00 0.40 0.00 46 1018.9
20260901182032 90 277 1.7 6.1 0.00 0.40 0.00 47 1018.9
20260901181527 89 325 1.7 4.3 0.00 0.40 0.00 45 1018.9
20260901181023 88 325 0.9 4.3 0.00 0.40 0.00 46 1018.9
20260901180517 89 325 0.9 4.3 0.00 0.40 0.00 47 1018.9
20260901180045 88 325 1.7 4.3 0.00 0.40 0.00 48 1019.0
20260901175525 87 8 1.7 4.3 0.00 0.76 0.00 49 1019.1
20260901175022 86 83 1.7 3.5 0.00 0.76 0.00 50 1019.2
20260901174522 87 84 2.6 3.5 0.00 0.76 0.00 48 1019.1
20260901174018 86 88 0.9 3.5 0.00 0.76 0.00 49 1019.2
20260901173532 86 88 0.9 6.1 0.00 0.76 0.00 50 1019.1
20260901173027 85 88 2.6 6.1 0.00 0.76 0.00 52 1019.1
20260901172522 85 54 2.6 6.1 0.00 0.76 0.00 50 1019.1
20260901172016 84 98 1.7 3.5 0.00 0.76 0.00 51 1019.2
20260901171531 84 97 0.9 3.5 0.00 0.76 0.00 53 1019.1
20260901171031 84 97 1.7 3.5 0.00 0.76 0.00 54 1019.2
20260901170525 84 98 2.6 3.5 0.00 0.76 0.00 54 1019.2
20260901170033 83 99 1.7 3.5 0.00 0.76 0.00 54 1019.1
20260901165513 83 98 1.7 6.1 0.00 0.76 0.00 57 1019.2
20260901165028 82 98 3.5 6.1 0.00 0.76 0.00 56 1019.2
20260901164523 82 122 3.5 5.2 0.00 0.76 0.00 57 1019.2
20260901164019 81 135 1.7 5.2 0.00 0.76 0.00 59 1019.2
20260901163518 81 87 1.7 4.3 0.00 0.76 0.00 61 1019.1
20260901163013 81 85 2.6 6.1 0.00 0.76 0.00 63 1019.1
20260901162528 81 91 2.6 6.1 0.00 0.76 0.00 64 1019.1
20260901162024 81 107 2.6 6.1 0.00 0.76 0.00 63 1019.1
20260901161519 80 98 3.5 5.2 0.00 0.76 0.00 64 1019.2
20260901161014 80 79 2.6 6.1 0.00 0.76 0.00 65 1019.2
20260901160529 80 75 3.5 6.1 0.00 0.76 0.00 65 1019.2
20260901160036 79 65 3.5 6.1 0.00 0.76 0.00 65 1019.3
20260901155520 79 79 3.5 6.1 0.00 0.76 0.00 67 1019.3
20260901155015 79 71 2.6 6.1 0.00 0.76 0.00 67 1019.2
20260901154530 78 100 3.5 5.2 0.00 0.76 0.00 70 1019.1
20260901154025 78 107 2.6 7.0 0.00 0.76 0.00 69 1019.2
20260901153520 78 90 2.6 7.0 0.00 0.76 0.00 69 1019.2
20260901153016 78 102 3.5 6.1 0.00 0.76 0.00 69 1019.2
20260901152512 77 124 3.5 7.0 0.00 0.76 0.00 71 1019.2
20260901152031 77 137 3.5 7.0 0.00 0.76 0.00 70 1019.2
20260901151526 77 148 1.7 7.8 0.00 0.76 0.00 73 1019.2
20260901151021 76 159 4.3 7.8 0.00 0.76 0.00 72 1019.2
20260901150517 76 133 4.3 7.0 0.00 0.76 0.00 72 1019.2
20260901150027 76 142 2.6 7.0 0.00 0.76 0.00 74 1019.2
20260901145527 75 99 4.3 8.7 0.00 0.76 0.00 74 1019.2
20260901145022 75 110 4.3 8.7 0.00 0.76 0.00 74 1019.3
20260901144522 75 123 3.5 7.8 0.00 0.76 0.00 74 1019.2
20260901144016 75 192 1.7 7.8 0.00 0.76 0.00 76 1019.2
20260901143513 75 159 3.5 7.0 0.00 0.76 0.00 74 1019.2
20260901143027 75 127 1.7 3.5 0.00 0.76 0.00 77 1019.2
20260901142523 74 127 1.7 4.3 0.00 0.76 0.00 77 1019.2
20260901142018 74 127 2.6 4.3 0.00 0.76 0.00 78 1019.1
20260901141513 73 131 1.7 3.5 0.00 0.76 0.00 79 1019.0
20260901141013 73 131 1.7 3.5 0.00 0.76 0.00 80 1019.0
20260901140528 73 132 1.7 2.6 0.00 0.76 0.00 80 1018.9
20260901140036 73 132 0.9 1.7 0.00 0.76 0.00 81 1018.9
20260901135517 72 132 0.0 0.9 0.00 0.77 0.00 82 1018.7
20260901135013 72 132 0.0 0.0 0.00 0.77 0.00 83 1018.6
20260901134528 72 132 0.0 0.0 0.00 0.77 0.00 84 1018.7
20260901134024 72 132 0.0 0.0 0.00 0.77 0.00 85 1018.7
20260901133519 71 132 0.0 0.0 0.00 0.77 0.00 86 1018.7
20260901133019 70 132 0.0 0.0 0.00 0.77 0.00 86 1018.7
20260901132513 70 132 0.0 0.0 0.00 0.77 0.00 86 1018.4
20260901132028 70 132 0.0 0.0 0.00 0.77 0.00 87 1018.5
20260901131524 69 132 0.0 0.0 0.00 0.77 0.00 87 1018.5
20260901131019 69 132 0.0 0.0 0.00 0.77 0.00 87 1018.5
20260901130513 69 132 0.0 0.0 0.00 0.77 0.00 87 1018.4
20260901130041 69 132 0.0 0.0 0.00 0.77 0.00 87 1018.3
20260901125526 70 132 0.0 0.0 0.00 1.10 0.00 86 1018.3
20260901125020 70 132 0.0 0.0 0.00 1.10 0.00 86 1018.0
20260901124516 70 132 0.0 0.0 0.00 1.10 0.00 86 1017.9
20260901124031 70 132 0.0 0.0 0.00 1.10 0.00 86 1017.8
20260901123527 70 132 0.0 0.0 0.00 1.10 0.00 86 1017.8
20260901123023 70 132 0.0 0.0 0.00 1.10 0.00 85 1017.7
20260901122518 70 132 0.0 0.0 0.00 1.10 0.00 85 1017.7
20260901122018 70 132 0.0 0.0 0.00 1.10 0.00 85 1017.7
20260901121513 70 132 0.0 2.6 0.00 1.10 0.00 85 1017.7
20260901121028 70 132 0.9 2.6 0.00 1.10 0.00 85 1017.7
20260901120524 70 132 0.9 1.7 0.00 1.10 0.00 85 1017.7
20260901120032 70 132 0.9 3.5 0.00 1.10 0.00 85 1017.6
20260901115532 70 132 0.9 3.5 0.00 1.25 0.00 84 1017.6
20260901115027 71 132 1.7 3.5 0.00 1.25 0.00 84 1017.5
20260901114521 70 133 1.7 3.5 0.00 1.25 0.00 84 1017.5
20260901114020 71 133 1.7 3.5 0.00 1.25 0.00 84 1017.5
20260901113515 71 133 1.7 3.5 0.00 1.25 0.00 84 1017.5
20260901113030 70 134 1.7 3.5 0.00 1.25 0.00 84 1017.6
20260901112524 70 135 1.7 3.5 0.00 1.25 0.00 84 1017.6
20260901112019 70 136 2.6 3.5 0.00 1.25 0.00 84 1017.6
20260901111514 71 137 2.6 3.5 0.00 1.25 0.00 84 1017.5
20260901111030 71 137 2.6 3.5 0.00 1.25 0.00 84 1017.6
20260901110528 70 138 1.7 3.5 0.00 1.25 0.00 84 1017.5
20260901110040 70 139 1.7 3.5 0.00 1.25 0.00 84 1017.6
20260901105522 70 140 1.7 3.5 0.00 1.25 0.00 84 1017.6
20260901105016 71 140 0.9 2.6 0.00 1.25 0.00 83 1017.5
20260901104531 71 140 0.9 2.6 0.00 1.25 0.00 83 1017.5
20260901104026 71 140 0.9 2.6 0.00 1.25 0.00 82 1017.5
20260901103522 71 140 1.7 2.6 0.00 1.25 0.00 81 1017.5
20260901103017 72 141 0.9 2.6 0.00 1.25 0.00 81 1017.5
20260901102517 72 141 0.9 4.3 0.00 1.25 0.00 81 1017.4
20260901102013 72 141 1.7 4.3 0.00 1.25 0.00 81 1017.4
20260901101527 72 142 1.7 3.5 0.00 1.25 0.00 81 1017.2
20260901101023 72 143 1.7 2.6 0.00 1.25 0.00 81 1017.3
20260901100518 72 143 1.7 2.6 0.00 1.25 0.00 81 1017.2
20260901100045 72 144 0.9 2.6 0.00 1.25 0.00 80 1017.1
20260901095525 72 144 0.9 3.5 0.00 1.25 0.00 80 1017.2
20260901095023 72 144 0.9 3.5 0.00 1.25 0.00 81 1017.3
20260901094517 72 144 1.7 3.5 0.00 1.25 0.00 80 1017.3
20260901094011 72 146 1.7 3.5 0.00 1.25 0.00 78 1017.2
20260901093526 73 146 1.7 3.5 0.00 1.25 0.00 78 1017.2
20260901093020 73 148 1.7 3.5 0.00 1.25 0.00 78 1017.1
20260901092514 73 148 0.9 3.5 0.00 1.25 0.00 77 1017.2
20260901092028 72 148 0.9 1.7 0.00 1.25 0.00 78 1017.2
20260901091522 73 148 0.9 1.7 0.00 1.25 0.00 78 1017.2
20260901091021 72 148 0.0 2.6 0.00 1.25 0.00 79 1017.3
20260901090515 72 148 1.7 2.6 0.00 1.25 0.00 79 1017.3
20260901090042 72 148 1.7 2.6 0.00 1.25 0.00 79 1017.3
20260901085522 73 148 0.0 1.7 0.00 1.25 0.00 78 1017.3
20260901085016 73 148 0.0 1.7 0.00 1.25 0.00 78 1017.3
20260901084530 73 148 0.9 2.6 0.00 1.25 0.00 77 1017.3
20260901084025 73 148 0.9 2.6 0.00 1.25 0.00 77 1017.3
20260901083524 73 148 0.9 2.6 0.00 1.25 0.00 78 1017.3
20260901083018 73 148 0.9 2.6 0.00 1.25 0.00 77 1017.2
20260901082512 73 148 1.7 4.3 0.00 1.25 0.00 77 1017.3
20260901082027 73 148 1.7 4.3 0.00 1.25 0.00 77 1017.2
20260901081521 73 148 0.9 2.6 0.00 1.25 0.00 77 1017.4
20260901081016 73 148 1.7 2.6 0.00 1.25 0.00 76 1017.3
20260901080531 74 147 0.9 3.5 0.00 1.25 0.00 76 1017.5
20260901080038 73 147 0.9 3.5 0.00 1.25 0.00 76 1017.5
20260901075522 73 147 1.7 3.5 0.00 1.25 0.00 76 1017.4
20260901075017 73 147 1.7 2.6 0.00 1.25 0.00 77 1017.5
20260901074512 73 146 1.7 2.6 0.00 1.25 0.00 77 1017.4
20260901074026 73 146 0.9 1.7 0.00 1.25 0.00 77 1017.6
20260901073521 73 146 0.9 1.7 0.00 1.25 0.00 77 1017.6
20260901073015 73 146 0.0 2.6 0.00 1.25 0.00 76 1017.5
20260901072529 74 146 0.9 2.6 0.00 1.25 0.00 76 1017.6
20260901072028 74 146 0.9 2.6 0.00 1.25 0.00 75 1017.6
20260901071522 74 146 0.9 3.5 0.00 1.25 0.00 75 1017.6
20260901071016 74 146 1.7 3.5 0.00 1.25 0.00 74 1017.6
20260901070530 75 146 1.7 4.3 0.00 1.25 0.00 74 1017.5
20260901070037 75 146 1.7 4.3 0.00 1.25 0.00 74 1017.6
20260901065517 75 147 2.6 5.2 0.00 1.25 1.25 74 1017.5
20260901065012 75 140 2.6 5.2 0.00 1.25 1.25 74 1017.5
20260901064527 75 142 2.6 4.3 0.00 1.25 1.25 74 1017.6
20260901064025 75 142 1.7 4.3 0.00 1.25 1.25 74 1017.7
20260901063520 75 144 1.7 4.3 0.00 1.25 1.25 75 1017.7
20260901063014 74 148 2.6 5.2 0.00 1.25 1.25 76 1017.8
20260901062529 75 151 1.7 5.2 0.00 1.25 1.25 75 1017.8
20260901062023 75 159 2.6 5.2 0.00 1.25 1.25 75 1017.7
20260901061518 75 116 1.7 5.2 0.00 1.25 1.25 76 1017.9
20260901061012 75 115 2.6 5.2 0.00 1.25 1.25 76 1017.9
20260901060531 74 114 2.6 3.5 0.00 1.25 1.25 77 1017.8
20260901060036 74 113 1.7 3.5 0.00 1.25 1.25 77 1017.7
20260901055517 75 109 1.7 3.5 0.00 1.25 1.25 78 1017.7
20260901055031 75 109 1.7 3.5 0.00 1.25 1.25 78 1017.7
20260901054525 75 109 0.9 2.6 0.00 1.25 1.25 78 1017.7
20260901054020 75 109 1.7 2.6 0.00 1.25 1.25 77 1017.8
20260901053514 75 109 1.7 2.6 0.00 1.25 1.25 76 1017.7
20260901053013 75 109 1.7 4.3 0.00 1.25 1.25 77 1017.5
20260901052527 75 109 2.6 4.3 0.00 1.25 1.25 77 1017.5
20260901052021 75 106 2.6 4.3 0.00 1.25 1.25 77 1017.5
20260901051516 75 101 1.7 2.6 0.00 1.25 1.25 77 1017.6
20260901051031 75 101 1.7 2.6 0.00 1.25 1.25 77 1017.7
20260901050525 76 101 1.7 2.6 0.00 1.25 1.25 77 1017.7
20260901050032 76 101 1.7 3.5 0.00 1.25 1.25 76 1017.7
20260901045511 76 101 1.7 4.3 0.00 1.25 1.25 75 1017.8
20260901045030 76 101 2.6 4.3 0.00 1.25 1.25 75 1017.9
20260901044524 76 100 2.6 4.3 0.00 1.25 1.25 76 1017.9
20260901044019 76 99 1.7 3.5 0.00 1.25 1.25 76 1017.8
20260901043512 76 98 1.7 2.6 0.00 1.25 1.25 76 1017.9
20260901043026 76 98 1.7 3.5 0.00 1.25 1.25 76 1017.8
20260901042521 76 99 2.6 3.5 0.00 1.25 1.25 76 1017.6
20260901041520 76 99 1.7 2.6 0.00 1.25 1.25 76 1017.5
20260901041014 76 99 0.9 2.6 0.00 1.25 1.25 75 1017.5
20260901040528 76 99 0.9 2.6 0.00 1.25 1.25 75 1017.5
20260901040036 76 99 0.9 2.6 0.00 1.25 1.25 74 1017.5
20260901035517 76 99 0.9 2.6 0.00 1.25 1.25 75 1017.7
20260901035031 76 99 0.9 1.7 0.00 1.25 1.25 75 1017.5
20260901034525 75 99 0.9 1.7 0.00 1.25 1.25 78 1017.4
20260901034020 75 99 0.9 1.7 0.00 1.25 1.25 79 1017.4
20260901033518 76 99 0.0 0.0 0.00 1.25 1.25 77 1017.5
20260901033033 76 99 0.0 1.7 0.00 1.25 1.25 75 1017.4
20260901032527 75 99 0.9 1.7 0.00 1.25 1.25 77 1017.3
20260901032021 75 99 0.9 1.7 0.00 1.25 1.25 79 1017.2
20260901031515 76 99 0.9 1.7 0.00 1.25 1.25 78 1017.2
20260901031029 76 99 0.0 0.9 0.00 1.25 1.25 75 1017.1
20260901030524 76 99 0.0 0.9 0.00 1.25 1.25 74 1017.1
20260901030034 76 99 0.9 1.7 0.00 1.25 1.25 74 1017.0
20260901025534 77 99 0.0 1.7 0.00 1.25 1.25 74 1017.0
20260901025029 76 99 0.0 1.7 0.00 1.25 1.25 74 1016.9
20260901024524 76 99 0.9 1.7 0.00 1.25 1.25 74 1017.0
20260901024018 77 99 0.0 1.7 0.00 1.25 1.25 73 1016.7
20260901023533 77 99 0.9 1.7 0.00 1.25 1.25 72 1016.7
20260901023027 77 99 0.9 2.6 0.00 1.25 1.25 70 1016.6
20260901022522 77 99 1.7 2.6 0.00 1.25 1.25 70 1016.4
20260901022022 77 99 0.0 1.7 0.00 1.25 1.25 70 1016.4
20260901021518 77 99 0.9 1.7 0.00 1.25 1.25 70 1016.5
20260901021033 77 99 0.9 2.6 0.00 1.25 1.25 69 1016.4
20260901020528 78 99 0.9 2.6 0.00 1.25 1.25 69 1016.0
20260901020035 78 99 0.9 1.7 0.00 1.25 1.25 69 1016.0
20260901015515 78 99 0.9 1.7 0.00 1.25 1.25 68 1016.0
20260901015030 78 99 0.9 1.7 0.00 1.25 1.25 69 1016.0
20260901014529 78 99 0.0 1.7 0.00 1.25 1.25 71 1016.0
20260901014024 78 98 0.9 1.7 0.00 1.25 1.25 70 1015.9
20260901013518 77 99 0.0 2.6 0.00 1.25 1.25 71 1015.9
20260901013032 78 99 0.0 3.5 0.00 1.25 1.25 68 1015.7
20260901012526 78 99 1.7 3.5 0.00 1.25 1.25 68 1015.4
20260901012021 78 98 0.9 1.7 0.00 1.25 1.25 68 1015.5
20260901011515 78 98 0.9 2.6 0.00 1.25 1.25 68 1015.5
20260901011029 78 98 0.9 2.6 0.00 1.25 1.25 68 1015.4
20260901010529 79 98 1.7 3.5 0.00 1.25 1.25 68 1015.5
20260901010034 79 99 1.7 3.5 0.00 1.25 1.25 68 1015.4
20260901005515 79 99 2.6 3.5 0.00 1.25 1.25 67 1015.4
20260901005030 79 98 2.6 3.5 0.00 1.25 1.25 67 1015.5
20260901004524 79 99 1.7 4.3 0.00 1.25 1.25 67 1015.5
20260901004018 79 99 2.6 4.3 0.00 1.25 1.25 66 1015.6
20260901003533 79 100 2.6 4.3 0.00 1.25 1.25 65 1015.5
20260901003032 79 100 1.7 2.6 0.00 1.25 1.25 66 1015.5
20260901002526 79 100 0.9 2.6 0.00 1.25 1.25 68 1015.7
20260901002020 79 100 0.9 4.3 0.00 1.25 1.25 67 1015.8
20260901001514 79 100 2.6 4.3 0.00 1.25 1.25 67 1015.8
20260901001028 79 108 1.7 4.3 0.00 1.25 1.25 68 1015.8
20260901000523 79 146 1.7 4.3 0.00 1.25 1.25 67 1015.8
20260901000029 79 148 1.7 4.3 0.00 1.25 1.25 66 1015.8
20260831235529 79 149 1.7 7.0 0.00 1.25 1.25 66 1015.9
20260831235027 80 133 2.6 7.0 0.00 1.25 1.25 67 1016.0
20260831234522 79 137 2.6 5.2 0.00 1.25 1.25 67 1016.0
20260831234017 79 207 1.7 5.2 0.00 1.25 1.25 67 1015.9
20260831233531 78 110 3.5 7.0 0.00 1.25 1.25 68 1016.1
20260831233026 78 115 4.3 7.0 0.00 1.25 1.25 68 1016.0
20260831232521 78 109 3.5 7.0 0.00 1.25 1.25 68 1016.0
20260831232015 79 92 4.3 7.0 0.00 1.25 1.25 67 1016.1
20260831231534 78 129 4.3 7.8 0.00 1.25 1.25 64 1016.3
20260831231025 78 116 3.5 7.8 0.00 1.25 1.25 64 1016.1
20260831230519 78 77 4.3 7.8 0.00 1.25 1.25 67 1016.1
20260831230046 78 110 4.3 7.8 0.00 1.25 1.25 67 1016.1
20260831225528 78 104 4.3 9.6 0.00 1.25 1.25 68 1016.1